DELTA 1 DEB, 21550

Orbit data source: Space-Track

DELTA 1 DEB, 21550 is space debris in SSO originally from a launch on Thu, 12 Jun 1975 UTC launched from the Air Force Western Test Range (AFWTR). Debris objects in space refer to the collection of defunct objects orbiting the Earth. Examples of debris include non-operational satellites, rocket bodies, and fragments generated from explosions, collisions, or faulty payload assembly.

Loading next visibility...
Identifier
21550, 1975-052HE
Orbit
SSO
Country
Flag of USUS
Related business
Manufacturer
Unknown
Mission
Spacecraft
Bus & Motor
Unknown
Mass
Unknown
Launch date (UTC)
1975-06-12 (51 years ago)
Launch vehicle
Unknown
Launch site
Air Force Western Test Range (AFWTR)
Object type
Payload
Rocket body
Debris
Shape & HBR
Unknown shape, 0.1 m
Radar Cross Section
Medium (>0.1 m² and <1 m²)

Expand to show TLE details & history
Last TLE update: 2 days ago

TLE from 2 days ago
0 DELTA 1 DEB
1 21550U 75052HE  26170.67535626 -.00000094  00000-0 -24177-3 0  9997
2 21550  99.8501  65.7632 0547896 354.7927  29.7476 12.46070569592777
Epoch: 2026-06-19T16:12Z
TLE epoch observation values (Epoch: 2026-06-19T16:12:30.780Z)
Latitude
27.44556°
Longitude
-90.41297°
Altitude
1,116.445 km
Speed
7.465 km/s
True Right ascension
04h 02m 27s
True Declination
27° 18' 43"
Sunlit
Object was in daylight at epoch
Visualization orbit readout
Latitude
Unknown
Longitude
Unknown
Altitude
Unknown
Speed
Unknown
Apparent Right ascension
Unknown
Apparent Declination
Unknown
Sunlit
N/A
Visualization observer readout
Local Sidereal Time
13:08:04
Azimuth
Unknown
Elevation
Unknown
Doppler factor
Unknown
Orbital elements
Apogee altitude
1,908.869 km
Perigee altitude
1,047.955 km
Semi-major axis
7,856.549 km
Eccentricity
0.05479
Inclination
99.8501°
RAAN
65.7632°
Arg. of periapsis
354.7927°
True anomaly
33.05738°
Mean anomaly
29.7476°
Eccentric anomaly
31.38233°
Mean motion
3.1167 °/min
Orbital period
115.51 mins
BSTAR
-0.00024177
Loading maneuver chart data...
Computing Atmospheric mass density...
Loading historical data...
Loading historical data...
Loading historical data...
Loading historical data...
Loading historical data...
Loading historical data...
Loading historical data...

Documentation

Showing up to 5 results
|